Regional Weather Roundup
Issued by NWS

Home | Current Version | Previous Version | Graphics & Text | Print | Product List | Glossary On
Versions: 1 2 3 4 5 6 7 8 9 10 11 12 13 14 15 16 17 18 19 20 21 22 23 24 25 26 27 28 29 30 31 32 33 34 35 36 37 38 39 40 41 42 43 44 45 46 47 48 49 50
926
ASUS43 KMPX 150910
RWRMN
WEATHER ROUNDUP FOR MINNESOTA
NATIONAL WEATHER SERVICE TWIN CITIES/CHANHASSEN MN
300 AM CST FRI DEC 15 2017


NOTE: "FAIR" INDICATES FEW OR NO CLOUDS BELOW 12,000 FEET WITH NO
SIGNIFICANT WEATHER AND/OR OBSTRUCTIONS TO VISIBILITY. N/A MEANS
CURRENT SKY AND/OR WEATHER CONDITIONS ARE NOT AVAILABLE.

MNZ060>063-068>070-151000-
   Twin Cities Metro

CITY           SKY/WX    TMP DP  RH WIND       PRES   REMARKS
TWIN CITIES    LGT SNOW  23  20  88 W7        29.94F FOG     WCI  15
ST PAUL        CLOUDY    24  16  71 NW8       29.96S WCI  15
CRYSTAL        LGT SNOW  22  16  78 W5        29.93S WCI  16
BLAINE         FLURRIES  23  19  86 W8        29.93S WCI  14
LAKEVILLE        N/A     21  19  93 W3        29.94F
EDEN PRAIRIE   CLOUDY    24  18  77 W3        29.93F
SOUTH ST PAUL  FLURRIES  24  17  75 W8        29.94S WCI  15
LAKE ELMO      CLOUDY    23  18  80 W8        29.94F WCI  14
$$
MNZ001>005-007-008-013>017-022>024-027-028-151000-
   Northwest Minnesota

CITY           SKY/WX    TMP DP  RH WIND       PRES   REMARKS
BEMIDJI        FLURRIES  12   8  83 NW12      29.90R WCI  -2
HALLOCK        CLOUDY    12  10  92 CALM      29.95F
ROSEAU         FLURRIES  10   7  85 NW5       29.93S WCI   2
WARROAD        CLOUDY     9   3  78 NW8       29.92F WCI  -4
THIEF RVR FALL CLOUDY    12   8  84 CALM      29.93F
CROOKSTON      CLOUDY    16  12  86 CALM      29.96F
FOSSTON        CLOUDY    10   9  92 NW7       29.93S WCI   0
DETROIT LAKES  CLOUDY    19  18  93 NW6       29.93S WCI  11
MOORHEAD       CLOUDY    19  16  86 CALM      29.97S
PARK RAPIDS    CLOUDY    16  11  80 NW8       29.89S WCI   5
MAHNOMEN       CLOUDY    11   9  88 NW6       29.93R WCI   2
$$
MNZ006-009>011-018-025>026-151000-
   North Central Minnesota

CITY           SKY/WX    TMP DP  RH WIND       PRES   REMARKS
BAUDETTE       FLURRIES  10   5  80 NW12      29.89F WCI  -5
FLAG ISLAND    CLOUDY     9   3  78 NW13      29.90F WCI  -7
INTL FALLS     LGT SNOW  10   4  76 NW6       29.88R WCI   0
WASKISH        FLURRIES  10   7  85 NW7       29.91S WCI   0
BIG FORK       CLOUDY    10   5  79 W6        29.88R WCI   1
LONGVILLE      FLURRIES  14   9  79 NW3       29.89S
GRAND RAPIDS   FLURRIES  12   7  80 NW12      29.89S WCI  -2
CRANE LAKE     LGT SNOW   9   7  92 NW5       29.88S WCI   0
ORR            FLURRIES   9   3  78 W7        29.83S WCI  -3
COOK           LGT SNOW   9   7  92 NW7       29.86R WCI  -3
WALKER         LGT SNOW  14  10  83 NW10      29.89S WCI   1
$$
MNZ012-019>021-037-151000-
   Northeast Minnesota

CITY           SKY/WX    TMP DP  RH WIND       PRES   REMARKS
DULUTH         FLURRIES  11   8  88 NW12      29.83S WCI  -3
ELY            LGT SNOW   9   5  85 NW6       29.82S WCI  -1
HIBBING        FLURRIES  11   5  77 NW13      29.86R WCI  -4
EVELETH        LGT SNOW  12   6  76 NW6       29.86R WCI   3
DULUTH HARBOR  CLOUDY    18  10  73 W9        29.91S WCI   6
TWO HARBORS    CLEAR     12   7  79 W6        29.82S WCI   3
SILVER BAY     CLOUDY    12   7  79 NW6       29.80S WCI   3
GRAND MARAIS     N/A     14   5  67 VRB3      29.82S
G MARAIS ARPRT FLURRIES   7   1  78 NW9G17    29.73R WCI  -7
$$
MNZ029>031-032-039>041-046>048-054>057-064-151000-
   West Central Minnesota

CITY           SKY/WX    TMP DP  RH WIND       PRES   REMARKS
FERGUS FALLS   CLOUDY    21  19  93 N6        29.96S WCI  14
WHEATON        CLOUDY    28  27  93 N8        29.95R WCI  20
MORRIS         MIX PCPN  28  28 100 NW6       29.90F WCI  22
ALEXANDRIA     CLOUDY    23  21  92 N7        29.91S WCI  15
ELBOW LAKE     CLOUDY    24  22  93 NE6       29.92S WCI  16
WADENA         CLOUDY    16  14  93 NW5       29.90F WCI   9
GLENWOOD       CLOUDY    23  21  93 CALM      29.91S
APPLETON         N/A     30  28  93 CALM      29.92F
BENSON         FLURRIES  27  27 100 CALM      29.93S
ORTONVILLE     CLOUDY    30  27  86 NW6       29.92S WCI  24
MADISON        CLOUDY    34  28  80 W7        29.93S WCI  28
WILLMAR        CLOUDY    28  27  93 W3        29.93F
$$
MNZ033>034-036-042>043-049>051-058-059-151000-
   Central Minnesota

CITY           SKY/WX    TMP DP  RH WIND       PRES   REMARKS
ST CLOUD       CLOUDY    22  18  85 NW6       29.93S WCI  14
SAUK CENTRE    CLOUDY    22  20  93 CALM      29.91S
PAYNESVILLE    CLOUDY    23  22  97 CALM      29.92S
AITKIN         CLOUDY    12   9  85 NW7       29.89S WCI   2
PINE RIVER     FLURRIES  14  10  85 W5        29.93S WCI   6
BRAINERD       CLOUDY    17  11  77 NW9       29.91S WCI   6
STAPLES        CLOUDY    16  14  93 W5        29.91S WCI   9
LONG PRAIRIE   CLOUDY    21  19  93 SW5       29.91F WCI  15
LITTLE FALLS   CLOUDY    19  12  73 NW3       29.92F
LITCHFIELD     CLOUDY    25  23  93 CALM      29.93S
BUFFALO        CLOUDY    23  19  85 CALM      29.94F
MAPLE LAKE     CLOUDY    24  22  90 CALM      29.94S
HUTCHINSON     CLOUDY    24  22  93 CALM      29.94F
$$
MNZ037-044-045-052-053-151000-
   East Central Minnesota

CITY           SKY/WX    TMP DP  RH WIND       PRES   REMARKS
PRINCETON      CLOUDY    21  16  79 W6        29.93R WCI  14
MORA           CLOUDY    18  10  73 NW9       29.93S WCI   6
CAMBRIDGE      FLURRIES  21  12  68 W8        29.93R WCI  12
RUSH CITY      CLOUDY    17  12  79 NW5       29.93R WCI  10
MOOSE LAKE     CLOUDY    16   9  73 NW7       29.88S WCI   6
HINCKLEY       CLOUDY    18  12  79 NW5       29.91S WCI  11
CLOQUET        FLURRIES  12   9  85 W6        29.86S WCI   3
MCGREGOR       CLOUDY    16  10  79 NW7       29.89S WCI   6
$$
MNZ071>073-080-081-089-090-097-098-151000-
   Southwest Minnesota

CITY           SKY/WX    TMP DP  RH WIND       PRES   REMARKS
MONTEVIDEO     CLOUDY    28  27  93 CALM      29.93S
GRANITE FALLS  CLOUDY    31  28  89 SW8       29.94F WCI  24
CANBY          CLOUDY    32  28  85 SW12      29.94F WCI  23
MARSHALL       CLOUDY    30  27  88 W13       29.94F WCI  20
REDWOOD FALLS  CLOUDY    29  27  92 W10       29.94F WCI  20
OLIVIA         FLURRIES  30  28  93 W8        29.92F WCI  23
PIPESTONE      CLOUDY    28  25  86 W9        29.94F WCI  20
WINDOM         LGT SNOW  27  16  63 W10       29.95F WCI  17
WORTHINGTON    FLURRIES  27  24  89 W15       29.96F WCI  15
JACKSON        FLURRIES  28  23  80 MISG      29.96F
TRACY          CLOUDY    30  27  86 W9G16     29.94F WCI  22
SLAYTON        MIX PCPN  28  26  91 W12       29.95F WCI  18
$$
MNZ065>067-074>077-082>085-091>093-151000-
   South Central Minnesota

CITY           SKY/WX    TMP DP  RH WIND       PRES   REMARKS
MANKATO        CLOUDY    24  22  91 SW7       29.96F WCI  16
NEW ULM        CLOUDY    27  21  80 W9        29.94F WCI  17
ST JAMES       CLOUDY    27  25  93 SW10      29.97F WCI  17
FAIRMONT       FLURRIES  27  22  81 W13       29.97F WCI  16
GLENCOE        CLOUDY    25  23  93 CALM      29.93F
FARIBAULT      CLOUDY    25  19  80 CALM      29.94F
OWATONNA       CLOUDY    23  19  86 W5        29.95S WCI  17
WASECA         CLOUDY    23  21  93 SW3       29.96F
ALBERT LEA     CLOUDY    25  19  80 W5        29.95F WCI  19
$$
MNZ078>079-086>088-094>096-151000-
   Southeast Minnesota

CITY           SKY/WX    TMP DP  RH WIND       PRES   REMARKS
ROCHESTER      CLOUDY    22  18  85 W12       29.93S WCI  10
RED WING       CLOUDY    23  14  68 W7        29.93F WCI  15
STANTON        FLURRIES  25  19  79 W7        29.94S WCI  17
DODGE CENTER   CLOUDY    21  18  86 W8        29.93F WCI  12
WINONA         CLOUDY    27  18  69 NW13      29.94F WCI  16
PRESTON        CLOUDY    22  17  80 NW10      29.93F WCI  11
$$
ABBREVIATIONS USED IN REMARKS
   TC - TEMPERATURES IN CELSIUS
  WCI - WIND CHILL INDEX
   HX - HEAT INDEX
  VSB - VISIBILITY
$$




USA.gov is the U.S. government's official web portal to all federal, state and local government web resources and services.